Regional Weather Roundup
Issued by NWS

Home | Current Version | Previous Version | Graphics & Text | Print | Product List | Glossary Off
Versions: 1 2 3 4 5 6 7 8 9 10 11 12 13 14 15 16 17 18 19 20 21 22 23 24 25 26 27 28 29 30 31 32 33 34 35 36 37 38 39 40 41 42 43 44 45 46 47 48 49 50

054
ASUS43 KMPX 191910
RWRMN
WEATHER ROUNDUP FOR MINNESOTA
NATIONAL WEATHER SERVICE TWIN CITIES/CHANHASSEN MN
100 PM CST FRI JAN 19 2018


NOTE: "FAIR" INDICATES FEW OR NO CLOUDS BELOW 12,000 FEET WITH NO
SIGNIFICANT WEATHER AND/OR OBSTRUCTIONS TO VISIBILITY. N/A MEANS
CURRENT SKY AND/OR WEATHER CONDITIONS ARE NOT AVAILABLE.

MNZ060>063-068>070-192000-
   Twin Cities Metro

CITY           SKY/WX    TMP DP  RH WIND       PRES   REMARKS
TWIN CITIES    PTSUNNY   40  28  62 SW13      29.49F
ST PAUL        FAIR      39  28  64 S8G18     29.49F
CRYSTAL        FAIR      40  26  57 SW14      29.49F
BLAINE         PTSUNNY   41  28  60 SW12      29.46F
LAKEVILLE      FAIR      39  27  60 SW6       29.49F
EDEN PRAIRIE   FAIR      39  27  62 SW16      29.48F
SOUTH ST PAUL  FAIR      40  27  61 S9G17     29.48F
LAKE ELMO      FAIR      37  30  75 S14       29.48F
$$
MNZ001>005-007-008-013>017-022>024-027-028-192000-
   Northwest Minnesota

CITY           SKY/WX    TMP DP  RH WIND       PRES   REMARKS
BEMIDJI        FAIR      40  29  66 W12       29.44S
HALLOCK        FAIR      36  32  87 SW7       29.42F
ROSEAU         FAIR      41  34  75 W18G24    29.38S
WARROAD        FAIR      39  34  81 W13       29.36F
THIEF RVR FALL CLOUDY    37  30  75 W13       29.45F
CROOKSTON      MIX PCPN  36  30  80 W8        29.49R
FOSSTON        FAIR      34  27  75 SW8       29.47R WCI  27
DETROIT LAKES  FAIR      39  32  75 S5        29.48F
MOORHEAD       FAIR      36  30  80 S6        29.50S
PARK RAPIDS    FAIR      41  30  65 W8        29.43F
MAHNOMEN       FAIR      34  30  86 SW7       29.47R WCI  28
$$
MNZ006-009>011-018-025>026-192000-
   North Central Minnesota

CITY           SKY/WX    TMP DP  RH WIND       PRES   REMARKS
BAUDETTE       PTSUNNY   44  30  57 W13       29.33F
FLAG ISLAND    FAIR      43  30  61 W20       29.30S
INTL FALLS     CLOUDY    40  30  67 SW8       29.33F
WASKISH        MIX PCPN  37  30  75 SW16      29.39F
BIG FORK       FAIR      41  28  60 SW7       29.40S
LONGVILLE      FAIR      41  28  60 SW3       29.42F
GRAND RAPIDS   FAIR      41  28  60 N3        29.44S
CRANE LAKE     FAIR      39  30  70 S7        29.37F
ORR            FAIR      39  27  60 CALM      29.35F
COOK           CLOUDY    37  28  70 SW6       29.39F
WALKER         MOCLDY    43  28  56 W8        29.42F
$$
MNZ012-019>021-037-192000-
   Northeast Minnesota

CITY           SKY/WX    TMP DP  RH WIND       PRES   REMARKS
DULUTH         FAIR      38  28  67 W10       29.40F
ELY            FAIR      36  27  69 SW8       29.37F
HIBBING        FAIR      37  27  67 SW3       29.40F
EVELETH        FAIR      37  27  67 W6        29.41S
DULUTH HARBOR  FAIR      37  30  75 SW12      29.44F
TWO HARBORS    FAIR      43  30  61 SW9       29.38F
SILVER BAY     FAIR      41  30  65 SW3       29.35F
GRAND MARAIS     N/A     36  31  82 W7        29.38F
G MARAIS ARPRT FAIR      34  25  69 W3        29.33F
$$
MNZ029>031-032-039>041-046>048-054>057-064-192000-
   West Central Minnesota

CITY           SKY/WX    TMP DP  RH WIND       PRES   REMARKS
FERGUS FALLS   FAIR      36  28  75 NW6       29.49F
MORRIS         CLOUDY    43  30  61 NW13      29.49F
ALEXANDRIA     FAIR      42  29  59 NW9       29.48F
ELBOW LAKE     FAIR      37  31  78 NW12      29.50S
WADENA         FAIR      43  28  56 NW10      29.46S
GLENWOOD       FAIR      41  30  65 W10       29.48S
APPLETON       CLOUDY    45  30  57 NW10G16   29.50F
BENSON         MOSUNNY   45  30  57 N20       29.52R
ORTONVILLE     CLOUDY    45  30  57 NW12      29.50F
MADISON        MOSUNNY   48  34  57 N18       29.48F
WILLMAR        FAIR      43  34  70 W9        29.49F
$$
MNZ033>034-036-042>043-049>051-058-059-192000-
   Central Minnesota

CITY           SKY/WX    TMP DP  RH WIND       PRES   REMARKS
ST CLOUD       FAIR      39  30  70 SW8       29.46F
SAUK CENTRE      N/A     40  30  66 W8        29.47F
PAYNESVILLE    FAIR      43  32  65 W8        29.47F
AITKIN         FAIR      39  27  60 SW5       29.43F
PINE RIVER     FAIR      41  27  56 CALM      29.47F
BRAINERD       FAIR      38  28  67 SW5       29.45F
STAPLES        FAIR      39  28  65 W5        29.45F
LONG PRAIRIE   FAIR      41  28  60 W6        29.46F
LITTLE FALLS   FAIR      41  23  48 CALM      29.46F
LITCHFIELD     FAIR      43  34  70 SW8       29.47F
BUFFALO        FAIR      38  29  68 S9        29.49R
MAPLE LAKE     FAIR      41  32  70 MISG      29.48F
HUTCHINSON     FAIR      42  33  69 SW9       29.49F
$$
MNZ037-044-045-052-053-192000-
   East Central Minnesota

CITY           SKY/WX    TMP DP  RH WIND       PRES   REMARKS
PRINCETON      FAIR      43  28  56 SW7       29.47S
MORA           FAIR      37  27  65 SW5       29.48F
CAMBRIDGE      FAIR      43  28  56 SW8       29.48R
RUSH CITY      FAIR      40  27  58 W6        29.48R
MOOSE LAKE     FAIR      36  28  75 SW6       29.42F
HINCKLEY       FAIR      36  28  75 CALM      29.47F
CLOQUET        FAIR      37  27  65 SW6       29.42F
MCGREGOR       FAIR      41  28  60 SW3       29.43F
$$
MNZ071>073-080-081-089-090-097-098-192000-
   Southwest Minnesota

CITY           SKY/WX    TMP DP  RH WIND       PRES   REMARKS
MONTEVIDEO     MOSUNNY   50  34  53 N14       29.48F
GRANITE FALLS  CLOUDY    49  36  61 W15       29.51S
CANBY          CLOUDY    50  31  48 NW8       29.50F
MARSHALL       CLOUDY    48  33  56 W15       29.50F
REDWOOD FALLS  CLOUDY    44  33  65 W15       29.49F
OLIVIA         CLOUDY    43  32  65 W12       29.48S
PIPESTONE      CLOUDY    39  30  70 W10       29.52S
WINDOM         CLOUDY    45  25  45 SW12      29.51S
WORTHINGTON    CLOUDY    44  32  62 SW17      29.52F
JACKSON        CLOUDY    43  32  65 SW12      29.51F
TRACY            N/A    N/A N/A N/A MISG      29.49
SLAYTON        CLOUDY    41  33  72 SW21      29.49F
$$
MNZ065>067-074>077-082>085-091>093-192000-
   South Central Minnesota

CITY           SKY/WX    TMP DP  RH WIND       PRES   REMARKS
MANKATO        FAIR      40  29  64 SW21      29.50F
NEW ULM        MOSUNNY   45  30  57 SW14      29.50F
ST JAMES       CLOUDY    45  32  61 SW15      29.52F
FAIRMONT       CLOUDY    42  31  64 SW17      29.51F
GLENCOE        FAIR      41  32  70 SW7       29.48F
FARIBAULT      FAIR      39  28  65 S13G18    29.51F
OWATONNA       FAIR      39  30  70 SW16      29.52F
WASECA         FAIR      36  30  80 SW13      29.54S
ALBERT LEA     FAIR      41  27  56 SW10G21   29.53F
$$
MNZ078>079-086>088-094>096-192000-
   Southeast Minnesota

CITY           SKY/WX    TMP DP  RH WIND       PRES   REMARKS
ROCHESTER      FAIR      36  28  73 S16       29.54F
RED WING       FAIR      39  23  52 S8        29.50F
STANTON        FAIR      38  29  69 S7        29.48F
DODGE CENTER   FAIR      36  28  75 S18       29.50F
WINONA         FAIR      39  27  60 S5        29.55F
AUSTIN         FAIR      36  28  75 S14       29.56F
PRESTON        FAIR      35  26  70 S22G28    29.56F WCI  24
$$
ABBREVIATIONS USED IN REMARKS
   TC - TEMPERATURES IN CELSIUS
  WCI - WIND CHILL INDEX
   HX - HEAT INDEX
  VSB - VISIBILITY
$$




USA.gov is the U.S. government's official web portal to all federal, state and local government web resources and services.